This is the latest recevied weather packets stored in our database for station/object NK7E-1. If no packets are shown the sender has not sent any weather packets the latest 10 day(s).
| Time | Temp. | Humidity | Pressure | Rain* | Wind** | Luminosity | Snow |
|---|---|---|---|---|---|---|---|
| 1777931402 | 27.22° C | 15% | 1013.8 hPa | 0 mm | - | - | - |
| 1777930800 | 27.22° C | 15% | 1013.8 hPa | 0 mm | - | - | - |
| 1777930202 | 27.78° C | 15% | 1013.7 hPa | 0 mm | - | - | - |
| 1777929601 | 28.33° C | 16% | 1013.6 hPa | 0 mm | - | - | - |
| 1777929001 | 27.78° C | 17% | 1013.3 hPa | 0 mm | - | - | - |
| 1777928401 | 27.22° C | 17% | 1013.5 hPa | 0 mm | - | - | - |
| 1777927800 | 27.78° C | 17% | 1013.6 hPa | 0 mm | - | - | - |
| 1777927199 | 27.78° C | 16% | 1013.5 hPa | 0 mm | - | - | - |
| 1777926599 | 27.78° C | 16% | 1013.7 hPa | 0 mm | - | - | - |
| 1777925999 | 27.78° C | 15% | 1013.7 hPa | 0 mm | - | - | - |
| 1777925399 | 27.78° C | 16% | 1013.7 hPa | 0 mm | - | - | - |
| 1777924800 | 27.78° C | 16% | 1013.8 hPa | 0 mm | - | - | - |
| 1777924199 | 27.78° C | 16% | 1013.7 hPa | 0 mm | - | - | - |
| 1777923599 | 28.33° C | 17% | 1013.7 hPa | 0 mm | - | - | - |
| 1777922999 | 27.78° C | 16% | 1013.7 hPa | 0 mm | - | - | - |
| 1777922399 | 27.78° C | 18% | 1013.8 hPa | 0 mm | - | - | - |
| 1777921800 | 27.22° C | 19% | 1014 hPa | 0 mm | - | - | - |
| 1777921199 | 27.22° C | 19% | 1013.7 hPa | 0 mm | - | - | - |
| 1777920599 | 27.22° C | 20% | 1014 hPa | 0 mm | - | - | - |
| 1777919999 | 27.22° C | 18% | 1014.4 hPa | 0 mm | - | - | - |
| 1777919399 | 26.67° C | 20% | 1014.4 hPa | 0 mm | - | - | - |
| 1777918800 | 26.67° C | 19% | 1014.5 hPa | 0 mm | - | - | - |
| 1777918200 | 27.22° C | 19% | 1014.6 hPa | 0 mm | - | - | - |
| 1777917600 | 26.11° C | 24% | 1014.8 hPa | 0 mm | - | - | - |
| 1777916999 | 25.56° C | 24% | 1014.5 hPa | 0 mm | - | - | - |
* Rain latest hour (hover to see other rain measurements)
** Current wind speed in m/s (hover to see current wind gust speed)